NOAA 16 DEB, 41075

Orbit data source: Space-Track

NOAA 16 DEB, 41075 is space debris in SSO originally from a launch on Thu, 21 Sep 2000 UTC launched from the Air Force Western Test Range (AFWTR). Debris objects in space refer to the collection of defunct objects orbiting the Earth. Examples of debris include non-operational satellites, rocket bodies, and fragments generated from explosions, collisions, or faulty payload assembly.

Loading next visibility...
Identifier
41075, 2000-055AJ
Orbit
SSO
Last TLE update
12 hours ago
Origin
Manufacturer
Unknown
Mission
Spacecraft
Bus & Motor
Unknown
Mass
Unknown
Launch date (UTC)
2000-09-21 (25 years ago)
Launch vehicle
Unknown
Launch site
Air Force Western Test Range (AFWTR)
Object type
Payload
Rocket body
Debris
Shape & HBR
Unknown
Radar Cross Section
Small (<0.1 m²)

Expand to show TLE details & history

TLE from 12 hours ago
0 NOAA 16 DEB
1 41075U 00055AJ  25198.79028276  .00038572  00000-0  20379-2 0  9991
2 41075  99.0682 317.1098 0092099 184.2553 175.7900 15.11732191514762
Epoch: 2025-07-17T18:58Z
TLE epoch observation values (Epoch: 2025-07-17T18:58:00.43Z)
Latitude
-0.00001°
Longitude
96.75697°
Altitude
597.421 km
Speed
7.526 km/s
True Right ascension
21h 08m 26s
True Declination
0° 00' 00"
Sunlit
Object was in full shadow at epoch
Visualization orbit readout
Latitude
52.28603°
Longitude
-70.82118°
Altitude
503.111 km
Speed
7.638 km/s
Apparent Right ascension
08h 34m 59s
Apparent Declination
8° 54' 36"
Sunlit
Object is in daylight
Visualization observer readout
Local Sidereal Time
19:23:50
Azimuth
337.326° NNW
Elevation
-38.471°
Doppler factor
1
Orbital elements
Apogee altitude
591.577 km
Perigee altitude
464.368 km
Semi-major axis
6,906.109 km
Eccentricity
0.00921
Inclination
99.0682°
RAAN
317.1098°
Arg. of periapsis
184.2553°
True anomaly
175.8666°
Mean anomaly
175.79°
Eccentric anomaly
175.82839°
Mean motion
3.78175 °/min
Orbital period
95.19 mins
BSTAR
0.0020379
Loading maneuver chart data...
Loading SW <> Apogee altitude chart data...
Loading historical data...
Loading historical data...
Loading historical data...
Loading historical data...
Loading historical data...
Loading historical data...
Loading historical data...
|